WILDBLUE-1

Last updated on Mon Nov 03 2025 00:02:55 GMT+0000 (Coordinated Universal Time)

1 29643U 06054A 25306.47728671 -.00000035 00000+0 00000+0 0 9994 2 29643 2.2135 83.3740 0001544 138.5823 240.7137 1.00271886 51528
UTC large
Height (km)
Speed (km/s)
/
Latitude / Longitude
Inclination (degrees)
Orbital Period (minutes)
Azimuth
Elevation
Range (km)
Doppler Factor

Next 0 passes for location: London (51.5072 / 0.1276)

Sorry there are no passes over London.